AEE7AR LGKO-LGAV

Flight info

Callsign AEE7AR
Flight time 0h 36m
Altitude 22000
Route KOPAR L995 VARIX
Aircraft A20N/M-SDE2E3FGHIRWXY/LB1

Departure

Time 2026-05-08 14:02
Airport Kos International Airport "Ippokratis" (LGKO)

Arrival

Time 2026-05-08 14:38
Airport Athens Eleftherios Venizelos International Airport (LGAV)
Time Latitude Longitude Altitude Speed Heading
2026-05-08 13:45 36.79971 27.09057 412 ft 0 kts 88°
2026-05-08 13:55 36.79971 27.09033 412 ft 2 kts 89°
2026-05-08 13:56 36.79971 27.09014 413 ft 2 kts 88°
2026-05-08 13:56 36.79970 27.08996 413 ft 2 kts 89°
2026-05-08 13:56 36.79969 27.08977 413 ft 2 kts 88°
2026-05-08 13:56 36.79972 27.08958 412 ft 2 kts 118°
2026-05-08 13:57 36.79981 27.08944 412 ft 1 kts 142°
2026-05-08 13:57 36.79987 27.08939 413 ft 1 kts 151°
2026-05-08 13:57 36.79989 27.08938 413 ft 0 kts 148°
2026-05-08 13:59 36.79988 27.08938 413 ft 0 kts 148°
2026-05-08 13:59 36.79965 27.08956 412 ft 7 kts 147°
2026-05-08 13:59 36.79895 27.08979 410 ft 14 kts 177°
2026-05-08 13:59 36.79770 27.08984 405 ft 21 kts 178°
2026-05-08 14:00 36.79606 27.09004 399 ft 26 kts 155°
2026-05-08 14:00 36.79430 27.09134 391 ft 31 kts 148°
2026-05-08 14:00 36.79240 27.09284 386 ft 33 kts 149°
2026-05-08 14:00 36.79046 27.09432 381 ft 32 kts 149°
2026-05-08 14:01 36.78852 27.09580 374 ft 32 kts 146°
2026-05-08 14:01 36.78660 27.09732 364 ft 30 kts 147°
2026-05-08 14:01 36.78568 27.09828 357 ft 10 kts 211°
2026-05-08 14:01 36.78567 27.09811 357 ft 1 kts 337°
2026-05-08 14:02 36.78646 27.09749 363 ft 41 kts 329°
2026-05-08 14:02 36.79124 27.09372 384 ft 118 kts 328°
2026-05-08 14:02 36.79991 27.08698 566 ft 163 kts 327°
2026-05-08 14:02 36.80863 27.07841 1268 ft 164 kts 307°
2026-05-08 14:03 36.81379 27.06584 2022 ft 167 kts 284°
2026-05-08 14:03 36.81527 27.05091 2546 ft 185 kts 271°
2026-05-08 14:03 36.81577 27.03445 3108 ft 201 kts 272°
2026-05-08 14:03 36.81647 27.01613 3579 ft 225 kts 272°
2026-05-08 14:04 36.81730 26.99568 4214 ft 244 kts 273°
2026-05-08 14:04 36.81820 26.97411 4946 ft 258 kts 273°
2026-05-08 14:04 36.81912 26.95193 5939 ft 261 kts 274°
2026-05-08 14:04 36.82006 26.92960 6975 ft 262 kts 274°
2026-05-08 14:05 36.82101 26.90697 7967 ft 265 kts 274°
2026-05-08 14:05 36.82198 26.88421 8909 ft 268 kts 274°
2026-05-08 14:05 36.82295 26.86099 9839 ft 272 kts 274°
2026-05-08 14:05 36.82392 26.83756 10716 ft 276 kts 274°
2026-05-08 14:06 36.82493 26.81318 11245 ft 293 kts 274°
2026-05-08 14:06 36.82601 26.78679 11709 ft 311 kts 274°
2026-05-08 14:06 36.82714 26.75919 12156 ft 329 kts 274°
2026-05-08 14:06 36.82828 26.73069 12834 ft 337 kts 274°
2026-05-08 14:07 36.83065 26.70134 13653 ft 340 kts 281°
2026-05-08 14:07 36.83604 26.67282 14473 ft 342 kts 288°
2026-05-08 14:07 36.84415 26.64529 15267 ft 344 kts 292°
2026-05-08 14:07 36.85332 26.61733 15953 ft 349 kts 292°
2026-05-08 14:08 36.86254 26.58961 16669 ft 352 kts 292°
2026-05-08 14:08 36.87194 26.56137 17414 ft 354 kts 292°
2026-05-08 14:08 36.88131 26.53308 18107 ft 356 kts 292°
2026-05-08 14:08 36.89075 26.50452 18781 ft 359 kts 292°
2026-05-08 14:09 36.90025 26.47573 19429 ft 362 kts 291°
2026-05-08 14:09 36.90989 26.44647 19885 ft 370 kts 291°
2026-05-08 14:09 36.91975 26.41642 20257 ft 379 kts 291°
2026-05-08 14:09 36.92974 26.38602 20807 ft 383 kts 292°
2026-05-08 14:10 36.93985 26.35522 21397 ft 386 kts 291°
2026-05-08 14:10 36.95016 26.32371 21886 ft 389 kts 291°
2026-05-08 14:10 36.96033 26.29250 22095 ft 391 kts 291°
2026-05-08 14:10 36.97053 26.26126 22110 ft 391 kts 291°
2026-05-08 14:11 36.98073 26.22995 22116 ft 390 kts 291°
2026-05-08 14:11 36.99102 26.19834 22119 ft 389 kts 291°
2026-05-08 14:11 37.00115 26.16729 22119 ft 389 kts 291°
2026-05-08 14:11 37.01143 26.13574 22121 ft 389 kts 291°
2026-05-08 14:12 37.02160 26.10449 22119 ft 388 kts 291°
2026-05-08 14:12 37.03167 26.07351 22119 ft 388 kts 291°
2026-05-08 14:12 37.04189 26.04204 22116 ft 389 kts 291°
2026-05-08 14:12 37.05201 26.01079 22118 ft 388 kts 291°
2026-05-08 14:13 37.06218 25.97944 22119 ft 388 kts 291°
2026-05-08 14:13 37.07226 25.94833 22119 ft 388 kts 291°
2026-05-08 14:13 37.08236 25.91707 22120 ft 389 kts 291°
2026-05-08 14:13 37.09246 25.88578 22118 ft 389 kts 291°
2026-05-08 14:14 37.10255 25.85454 22112 ft 388 kts 291°
2026-05-08 14:14 37.11283 25.82305 22112 ft 389 kts 291°
2026-05-08 14:14 37.12299 25.79195 22110 ft 389 kts 291°
2026-05-08 14:14 37.13322 25.76045 22098 ft 389 kts 290°
2026-05-08 14:15 37.14340 25.72896 22106 ft 389 kts 291°
2026-05-08 14:15 37.15347 25.69767 22106 ft 389 kts 291°
2026-05-08 14:15 37.16358 25.66623 22102 ft 390 kts 291°
2026-05-08 14:15 37.17368 25.63475 22084 ft 389 kts 290°
2026-05-08 14:16 37.18375 25.60324 22108 ft 389 kts 290°
2026-05-08 14:16 37.19369 25.57212 22109 ft 389 kts 291°
2026-05-08 14:16 37.20376 25.54055 22083 ft 389 kts 291°
2026-05-08 14:16 37.21375 25.50920 22097 ft 390 kts 291°
2026-05-08 14:17 37.22380 25.47765 22107 ft 389 kts 291°
2026-05-08 14:17 37.23389 25.44596 22104 ft 389 kts 291°
2026-05-08 14:17 37.24387 25.41460 22098 ft 390 kts 290°
2026-05-08 14:17 37.25391 25.38291 22102 ft 390 kts 291°
2026-05-08 14:18 37.26427 25.35162 22098 ft 389 kts 295°
2026-05-08 14:18 37.28048 25.32462 22103 ft 392 kts 311°
2026-05-08 14:18 37.29966 25.30033 22103 ft 389 kts 311°
2026-05-08 14:18 37.31816 25.27620 22101 ft 387 kts 310°
2026-05-08 14:19 37.33665 25.25172 22102 ft 387 kts 310°
2026-05-08 14:19 37.35530 25.22682 22097 ft 387 kts 310°
2026-05-08 14:19 37.37369 25.20216 22095 ft 387 kts 310°
2026-05-08 14:19 37.39179 25.17782 22095 ft 386 kts 310°
2026-05-08 14:20 37.41029 25.15291 22094 ft 387 kts 309°
2026-05-08 14:20 37.42852 25.12829 22091 ft 386 kts 309°
2026-05-08 14:20 37.44690 25.10347 22090 ft 386 kts 309°
2026-05-08 14:20 37.46495 25.07908 22087 ft 385 kts 309°
2026-05-08 14:21 37.48311 25.05452 21754 ft 381 kts 309°
2026-05-08 14:21 37.50118 25.03003 20803 ft 387 kts 309°
2026-05-08 14:21 37.51936 25.00531 19846 ft 391 kts 310°
2026-05-08 14:21 37.53797 24.98003 19072 ft 390 kts 310°
2026-05-08 14:22 37.55620 24.95530 18314 ft 389 kts 310°
2026-05-08 14:22 37.57455 24.93039 17707 ft 382 kts 310°
2026-05-08 14:22 37.59225 24.90642 17477 ft 368 kts 309°
2026-05-08 14:22 37.60925 24.88337 17173 ft 356 kts 309°
2026-05-08 14:23 37.62605 24.86050 16680 ft 352 kts 309°
2026-05-08 14:23 37.64241 24.83817 16108 ft 350 kts 309°
2026-05-08 14:23 37.65897 24.81558 15528 ft 348 kts 309°
2026-05-08 14:23 37.67526 24.79335 14941 ft 346 kts 309°
2026-05-08 14:24 37.69147 24.77119 14372 ft 344 kts 309°
2026-05-08 14:24 37.70751 24.74926 13968 ft 336 kts 309°
2026-05-08 14:24 37.72326 24.72776 13550 ft 330 kts 309°
2026-05-08 14:24 37.73855 24.70686 13211 ft 326 kts 309°
2026-05-08 14:25 37.75403 24.68566 12833 ft 323 kts 309°
2026-05-08 14:25 37.76904 24.66511 12461 ft 321 kts 309°
2026-05-08 14:25 37.78414 24.64441 12002 ft 318 kts 309°
2026-05-08 14:25 37.79909 24.62390 11422 ft 317 kts 309°
2026-05-08 14:26 37.81385 24.60364 10967 ft 313 kts 309°
2026-05-08 14:26 37.82848 24.58356 10608 ft 308 kts 308°
2026-05-08 14:26 37.84306 24.56349 10468 ft 310 kts 308°
2026-05-08 14:26 37.85766 24.54339 10337 ft 309 kts 308°
2026-05-08 14:27 37.87209 24.52352 10220 ft 309 kts 308°
2026-05-08 14:27 37.88632 24.50395 10075 ft 297 kts 308°
2026-05-08 14:27 37.90020 24.48486 9779 ft 289 kts 308°
2026-05-08 14:27 37.91363 24.46636 9448 ft 283 kts 308°
2026-05-08 14:28 37.92682 24.44819 9147 ft 276 kts 307°
2026-05-08 14:28 37.93962 24.43052 8821 ft 270 kts 307°
2026-05-08 14:28 37.95219 24.41317 8474 ft 266 kts 307°
2026-05-08 14:28 37.96450 24.39618 8162 ft 261 kts 307°
2026-05-08 14:29 37.97675 24.37921 7831 ft 257 kts 307°
2026-05-08 14:29 37.98865 24.36277 7519 ft 253 kts 306°
2026-05-08 14:29 38.00039 24.34651 7244 ft 247 kts 306°
2026-05-08 14:29 38.01183 24.33056 6960 ft 243 kts 305°
2026-05-08 14:30 38.02308 24.31486 6694 ft 239 kts 305°
2026-05-08 14:30 38.03422 24.29935 6398 ft 237 kts 304°
2026-05-08 14:30 38.04538 24.28381 6067 ft 236 kts 305°
2026-05-08 14:30 38.05641 24.26844 5708 ft 236 kts 305°
2026-05-08 14:31 38.06744 24.25305 5328 ft 238 kts 306°
2026-05-08 14:31 38.07861 24.23751 4960 ft 239 kts 306°
2026-05-08 14:31 38.08976 24.22201 4601 ft 240 kts 306°
2026-05-08 14:32 38.11240 24.19071 4021 ft 235 kts 306°
2026-05-08 14:32 38.12116 24.17425 4002 ft 221 kts 282°
2026-05-08 14:32 38.12234 24.15532 4022 ft 215 kts 260°
2026-05-08 14:32 38.12004 24.13665 4013 ft 215 kts 256°
2026-05-08 14:33 38.11710 24.11819 4005 ft 215 kts 254°
2026-05-08 14:33 38.11056 24.10130 3988 ft 211 kts 229°
2026-05-08 14:33 38.10003 24.08874 3847 ft 204 kts 219°
2026-05-08 14:33 38.08912 24.07801 3633 ft 196 kts 217°
2026-05-08 14:34 38.07830 24.06780 3369 ft 193 kts 217°
2026-05-08 14:34 38.06742 24.05756 3105 ft 191 kts 216°
2026-05-08 14:34 38.05721 24.04790 2947 ft 180 kts 217°
2026-05-08 14:34 38.04722 24.03842 2683 ft 175 kts 216°
2026-05-08 14:35 38.03769 24.02936 2457 ft 167 kts 216°
2026-05-08 14:35 38.02879 24.02088 2227 ft 154 kts 216°
2026-05-08 14:35 38.02063 24.01311 1995 ft 138 kts 216°
2026-05-08 14:35 38.01339 24.00623 1796 ft 123 kts 216°
2026-05-08 14:36 38.00653 23.99971 1656 ft 122 kts 216°
2026-05-08 14:36 37.99974 23.99325 1519 ft 122 kts 216°
2026-05-08 14:36 37.99301 23.98686 1371 ft 122 kts 216°
2026-05-08 14:36 37.98617 23.98036 1224 ft 122 kts 216°
2026-05-08 14:37 37.97937 23.97394 1067 ft 122 kts 215°
2026-05-08 14:37 37.97246 23.96748 901 ft 123 kts 216°
2026-05-08 14:37 37.96572 23.96089 757 ft 122 kts 217°
2026-05-08 14:37 37.95886 23.95434 595 ft 123 kts 215°
2026-05-08 14:38 37.95205 23.94792 435 ft 123 kts 216°
2026-05-08 14:38 37.94522 23.94145 278 ft 122 kts 217°
2026-05-08 14:38 37.93917 23.93569 268 ft 87 kts 218°
2026-05-08 14:38 37.93570 23.93241 263 ft 37 kts 215°
2026-05-08 14:39 37.93344 23.93134 260 ft 32 kts 186°
2026-05-08 14:39 37.93272 23.93235 259 ft 21 kts 39°
2026-05-08 14:39 37.93401 23.93356 261 ft 25 kts 37°
2026-05-08 14:39 37.93556 23.93503 264 ft 28 kts 37°
2026-05-08 14:40 37.93716 23.93655 267 ft 29 kts 37°
2026-05-08 14:40 37.93877 23.93808 272 ft 28 kts 37°
2026-05-08 14:40 37.94040 23.93964 272 ft 30 kts 37°
2026-05-08 14:40 37.94206 23.94120 275 ft 29 kts 37°
2026-05-08 14:41 37.94368 23.94274 277 ft 28 kts 37°
2026-05-08 14:41 37.94526 23.94426 282 ft 27 kts 37°
2026-05-08 14:41 37.94667 23.94563 286 ft 20 kts 51°
2026-05-08 14:41 37.94621 23.94731 290 ft 24 kts 127°
2026-05-08 14:42 37.94508 23.94920 293 ft 29 kts 127°
2026-05-08 14:42 37.94383 23.95132 294 ft 29 kts 125°
2026-05-08 14:42 37.94266 23.95326 291 ft 22 kts 129°
2026-05-08 14:42 37.94218 23.95404 288 ft 3 kts 152°
2026-05-08 14:43 37.94189 23.95388 289 ft 4 kts 216°
2026-05-08 14:43 37.94166 23.95367 290 ft 3 kts 217°
2026-05-08 14:43 37.94148 23.95350 290 ft 0 kts 217°
2026-05-08 14:43 37.94146 23.95348 290 ft 0 kts 217°